contact:dominique.lefevre@mio.osupytheas.fr, maurice.libes@osupytheas.fr, didier.mallarino@osupytheas.fr
Project:EMSO http://www.emso-fr.org/EMSO-France
Depth: 2436.0 m
Title:EMSO Ligure Ouest : Data MII capteur MICROCAT
DateTime_Computer,Latitude,Longitude,Temperature,Conductivity,Pressure,DateTime_Instrument
DateTime_Computer,Latitude,Longitude,degC,S m-1,dbar,DateTime_Instrument
2023-10-20T00:00:27Z,42.805,6.029,13.3036,4.60106,2470.787,2023-10-20T02:02:52Z
2023-10-20T00:03:30Z,42.805,6.029,13.3034,4.60104,2470.74,2023-10-20T02:05:55Z
2023-10-20T00:06:33Z,42.805,6.029,13.3033,4.60104,2470.787,2023-10-20T02:08:58Z
2023-10-20T00:09:36Z,42.805,6.029,13.3036,4.60104,2470.787,2023-10-20T02:12:01Z
2023-10-20T00:12:39Z,42.805,6.029,13.3034,4.60103,2470.787,2023-10-20T02:15:04Z
2023-10-20T00:15:42Z,42.805,6.029,13.3041,4.60104,2470.777,2023-10-20T02:18:07Z
2023-10-20T00:18:45Z,42.805,6.029,13.3034,4.60104,2470.74,2023-10-20T02:21:10Z
2023-10-20T00:21:48Z,42.805,6.029,13.3032,4.60104,2470.777,2023-10-20T02:24:13Z
2023-10-20T00:24:52Z,42.805,6.029,13.3036,4.60103,2470.74,2023-10-20T02:27:16Z
2023-10-20T00:27:55Z,42.805,6.029,13.3032,4.60104,2470.74,2023-10-20T02:30:20Z
2023-10-20T00:30:58Z,42.805,6.029,13.3032,4.60104,2470.777,2023-10-20T02:33:23Z
2023-10-20T00:34:01Z,42.805,6.029,13.3036,4.60105,2470.73,2023-10-20T02:36:26Z
2023-10-20T00:37:04Z,42.805,6.029,13.3032,4.60104,2470.754,2023-10-20T02:39:29Z
2023-10-20T00:40:07Z,42.805,6.029,13.3032,4.60104,2470.763,2023-10-20T02:42:32Z
2023-10-20T00:43:10Z,42.805,6.029,13.3034,4.60106,2470.763,2023-10-20T02:45:35Z
2023-10-20T00:46:13Z,42.805,6.029,13.3036,4.60102,2470.74,2023-10-20T02:48:38Z
2023-10-20T00:49:16Z,42.805,6.029,13.3034,4.60102,2470.73,2023-10-20T02:51:41Z
2023-10-20T00:52:19Z,42.805,6.029,13.3034,4.60102,2470.754,2023-10-20T02:54:44Z
2023-10-20T00:55:22Z,42.805,6.029,13.3034,4.60102,2470.763,2023-10-20T02:57:47Z
2023-10-20T00:58:25Z,42.805,6.029,13.3034,4.60102,2470.763,2023-10-20T03:00:50Z
2023-10-20T01:01:29Z,42.805,6.029,13.3032,4.60103,2470.74,2023-10-20T03:03:53Z
2023-10-20T01:04:32Z,42.805,6.029,13.3033,4.60100,2470.763,2023-10-20T03:06:57Z
2023-10-20T01:07:35Z,42.805,6.029,13.3034,4.60102,2470.73,2023-10-20T03:10:00Z
2023-10-20T01:10:38Z,42.805,6.029,13.3033,4.60100,2470.74,2023-10-20T03:13:03Z
2023-10-20T01:13:41Z,42.805,6.029,13.3034,4.60103,2470.717,2023-10-20T03:16:06Z
2023-10-20T01:16:44Z,42.805,6.029,13.3034,4.60102,2470.74,2023-10-20T03:19:09Z
2023-10-20T01:19:47Z,42.805,6.029,13.3031,4.60102,2470.74,2023-10-20T03:22:12Z
2023-10-20T01:22:50Z,42.805,6.029,13.3035,4.60101,2470.75,2023-10-20T03:25:15Z
2023-10-20T01:25:53Z,42.805,6.029,13.3034,4.60100,2470.754,2023-10-20T03:28:18Z
2023-10-20T01:28:56Z,42.805,6.029,13.3034,4.60102,2470.73,2023-10-20T03:31:21Z
2023-10-20T01:31:59Z,42.805,6.029,13.3030,4.60101,2470.717,2023-10-20T03:34:24Z
2023-10-20T01:35:02Z,42.805,6.029,13.3036,4.60101,2470.67,2023-10-20T03:37:27Z
2023-10-20T01:38:06Z,42.805,6.029,13.3031,4.60102,2470.717,2023-10-20T03:40:30Z
2023-10-20T01:41:09Z,42.805,6.029,13.3035,4.60100,2470.717,2023-10-20T03:43:34Z
2023-10-20T01:44:12Z,42.805,6.029,13.3035,4.60101,2470.717,2023-10-20T03:46:37Z
2023-10-20T01:47:15Z,42.805,6.029,13.3032,4.60102,2470.73,2023-10-20T03:49:40Z
2023-10-20T01:50:18Z,42.805,6.029,13.3031,4.60102,2470.717,2023-10-20T03:52:43Z
2023-10-20T01:53:21Z,42.805,6.029,13.3034,4.60100,2470.74,2023-10-20T03:55:46Z
2023-10-20T01:56:24Z,42.805,6.029,13.3031,4.60103,2470.73,2023-10-20T03:58:49Z
2023-10-20T01:59:27Z,42.805,6.029,13.3034,4.60101,2470.717,2023-10-20T04:01:52Z
2023-10-20T02:02:30Z,42.805,6.029,13.3033,4.60103,2470.754,2023-10-20T04:04:55Z
2023-10-20T02:05:33Z,42.805,6.029,13.3034,4.60102,2470.717,2023-10-20T04:07:58Z
2023-10-20T02:08:36Z,42.805,6.029,13.3031,4.60102,2470.67,2023-10-20T04:11:01Z
2023-10-20T02:11:39Z,42.805,6.029,13.3029,4.60100,2470.73,2023-10-20T04:14:04Z
2023-10-20T02:14:42Z,42.805,6.029,13.3032,4.60099,2470.693,2023-10-20T04:17:07Z
2023-10-20T02:17:46Z,42.805,6.029,13.3031,4.60102,2470.754,2023-10-20T04:20:10Z
2023-10-20T02:20:49Z,42.805,6.029,13.3035,4.60101,2470.73,2023-10-20T04:23:14Z
2023-10-20T02:23:52Z,42.805,6.029,13.3032,4.60099,2470.693,2023-10-20T04:26:17Z
2023-10-20T02:26:55Z,42.805,6.029,13.3034,4.60101,2470.707,2023-10-20T04:29:20Z
2023-10-20T02:29:58Z,42.805,6.029,13.3032,4.60101,2470.693,2023-10-20T04:32:23Z
2023-10-20T02:33:01Z,42.805,6.029,13.3033,4.60101,2470.717,2023-10-20T04:35:26Z
2023-10-20T02:36:04Z,42.805,6.029,13.3036,4.60102,2470.693,2023-10-20T04:38:29Z
2023-10-20T02:39:07Z,42.805,6.029,13.3034,4.60102,2470.67,2023-10-20T04:41:32Z
2023-10-20T02:42:10Z,42.805,6.029,13.3030,4.60099,2470.67,2023-10-20T04:44:35Z
2023-10-20T02:45:13Z,42.805,6.029,13.3034,4.60102,2470.717,2023-10-20T04:47:38Z
2023-10-20T02:48:16Z,42.805,6.029,13.3037,4.60102,2470.707,2023-10-20T04:50:41Z
2023-10-20T02:51:19Z,42.805,6.029,13.3033,4.60100,2470.717,2023-10-20T04:53:44Z
2023-10-20T02:54:23Z,42.805,6.029,13.3033,4.60100,2470.717,2023-10-20T04:56:48Z
2023-10-20T02:57:26Z,42.805,6.029,13.3035,4.60099,2470.707,2023-10-20T04:59:51Z
2023-10-20T03:00:29Z,42.805,6.029,13.3029,4.60099,2470.693,2023-10-20T05:02:54Z
2023-10-20T03:03:32Z,42.805,6.029,13.3034,4.60100,2470.679,2023-10-20T05:05:57Z
2023-10-20T03:06:35Z,42.805,6.029,13.3038,4.60099,2470.707,2023-10-20T05:09:00Z
2023-10-20T03:09:38Z,42.805,6.029,13.3036,4.60102,2470.707,2023-10-20T05:12:03Z
2023-10-20T03:12:41Z,42.805,6.029,13.3034,4.60101,2470.693,2023-10-20T05:15:06Z
2023-10-20T03:15:44Z,42.805,6.029,13.3036,4.60102,2470.717,2023-10-20T05:18:09Z
2023-10-20T03:18:47Z,42.805,6.029,13.3034,4.60100,2470.693,2023-10-20T05:21:12Z
2023-10-20T03:21:50Z,42.805,6.029,13.3033,4.60102,2470.693,2023-10-20T05:24:15Z
2023-10-20T03:24:53Z,42.805,6.029,13.3037,4.60100,2470.679,2023-10-20T05:27:18Z
2023-10-20T03:27:56Z,42.805,6.029,13.3034,4.60102,2470.67,2023-10-20T05:30:21Z
2023-10-20T03:31:00Z,42.805,6.029,13.3036,4.60102,2470.707,2023-10-20T05:33:24Z
2023-10-20T03:34:03Z,42.805,6.029,13.3033,4.60101,2470.693,2023-10-20T05:36:28Z
2023-10-20T03:37:06Z,42.805,6.029,13.3033,4.60099,2470.693,2023-10-20T05:39:31Z
2023-10-20T03:40:09Z,42.805,6.029,13.3034,4.60102,2470.707,2023-10-20T05:42:34Z
2023-10-20T03:43:12Z,42.805,6.029,13.3036,4.60100,2470.73,2023-10-20T05:45:37Z
2023-10-20T03:46:15Z,42.805,6.029,13.3034,4.60102,2470.693,2023-10-20T05:48:40Z
2023-10-20T03:49:18Z,42.805,6.029,13.3031,4.60099,2470.693,2023-10-20T05:51:43Z
2023-10-20T03:52:21Z,42.805,6.029,13.3037,4.60101,2470.693,2023-10-20T05:54:46Z
2023-10-20T03:55:24Z,42.805,6.029,13.3033,4.60100,2470.693,2023-10-20T05:57:49Z
2023-10-20T03:58:27Z,42.805,6.029,13.3034,4.60102,2470.67,2023-10-20T06:00:52Z
2023-10-20T04:01:30Z,42.805,6.029,13.3034,4.60100,2470.661,2023-10-20T06:03:55Z
2023-10-20T04:04:33Z,42.805,6.029,13.3033,4.60102,2470.707,2023-10-20T06:06:58Z
2023-10-20T04:07:37Z,42.805,6.029,13.3035,4.60102,2470.693,2023-10-20T06:10:01Z
2023-10-20T04:10:40Z,42.805,6.029,13.3034,4.60101,2470.707,2023-10-20T06:13:05Z
2023-10-20T04:13:43Z,42.805,6.029,13.3037,4.60100,2470.707,2023-10-20T06:16:08Z
2023-10-20T04:16:46Z,42.805,6.029,13.3037,4.60100,2470.717,2023-10-20T06:19:11Z
2023-10-20T04:19:49Z,42.805,6.029,13.3035,4.60101,2470.693,2023-10-20T06:22:14Z
2023-10-20T04:22:52Z,42.805,6.029,13.3031,4.60101,2470.73,2023-10-20T06:25:17Z
2023-10-20T04:25:55Z,42.805,6.029,13.3037,4.60099,2470.693,2023-10-20T06:28:20Z
2023-10-20T04:28:58Z,42.805,6.029,13.3036,4.60100,2470.707,2023-10-20T06:31:23Z
2023-10-20T04:32:02Z,42.805,6.029,13.3033,4.60099,2470.717,2023-10-20T06:34:27Z
2023-10-20T04:35:05Z,42.805,6.029,13.3035,4.60101,2470.693,2023-10-20T06:37:30Z
2023-10-20T04:38:08Z,42.805,6.029,13.3036,4.60102,2470.717,2023-10-20T06:40:33Z
2023-10-20T04:41:12Z,42.805,6.029,13.3035,4.60102,2470.67,2023-10-20T06:43:37Z
2023-10-20T04:44:15Z,42.805,6.029,13.3033,4.60101,2470.67,2023-10-20T06:46:40Z
2023-10-20T04:47:18Z,42.805,6.029,13.3033,4.60100,2470.717,2023-10-20T06:49:43Z
2023-10-20T04:50:21Z,42.805,6.029,13.3037,4.60100,2470.693,2023-10-20T06:52:46Z
2023-10-20T04:53:24Z,42.805,6.029,13.3034,4.60102,2470.684,2023-10-20T06:55:49Z
2023-10-20T04:56:27Z,42.805,6.029,13.3035,4.60099,2470.717,2023-10-20T06:58:52Z
2023-10-20T04:59:30Z,42.805,6.029,13.3038,4.60100,2470.67,2023-10-20T07:01:55Z
2023-10-20T05:02:33Z,42.805,6.029,13.3036,4.60099,2470.73,2023-10-20T07:04:58Z
2023-10-20T05:05:36Z,42.805,6.029,13.3035,4.60099,2470.693,2023-10-20T07:08:01Z
2023-10-20T05:08:39Z,42.805,6.029,13.3029,4.60099,2470.717,2023-10-20T07:11:04Z
2023-10-20T05:11:42Z,42.805,6.029,13.3036,4.60099,2470.703,2023-10-20T07:14:07Z
2023-10-20T05:14:45Z,42.805,6.029,13.3034,4.60099,2470.73,2023-10-20T07:17:10Z
2023-10-20T05:17:49Z,42.805,6.029,13.3036,4.60102,2470.717,2023-10-20T07:20:14Z
2023-10-20T05:20:52Z,42.805,6.029,13.3035,4.60100,2470.707,2023-10-20T07:23:17Z
2023-10-20T05:23:55Z,42.805,6.029,13.3039,4.60101,2470.717,2023-10-20T07:26:20Z
2023-10-20T05:26:58Z,42.805,6.029,13.3031,4.60102,2470.754,2023-10-20T07:29:23Z
2023-10-20T05:30:01Z,42.805,6.029,13.3034,4.60102,2470.717,2023-10-20T07:32:26Z
2023-10-20T05:33:04Z,42.805,6.029,13.3034,4.60100,2470.707,2023-10-20T07:35:29Z
2023-10-20T05:36:07Z,42.805,6.029,13.3038,4.60100,2470.693,2023-10-20T07:38:32Z
2023-10-20T05:39:10Z,42.805,6.029,13.3035,4.60102,2470.73,2023-10-20T07:41:35Z
2023-10-20T05:42:13Z,42.805,6.029,13.3035,4.60099,2470.707,2023-10-20T07:44:38Z
2023-10-20T05:45:16Z,42.805,6.029,13.3034,4.60100,2470.693,2023-10-20T07:47:41Z
2023-10-20T05:48:19Z,42.805,6.029,13.3037,4.60099,2470.754,2023-10-20T07:50:44Z
2023-10-20T05:51:22Z,42.805,6.029,13.3038,4.60102,2470.717,2023-10-20T07:53:47Z
2023-10-20T05:54:25Z,42.805,6.029,13.3034,4.60103,2470.717,2023-10-20T07:56:50Z
2023-10-20T05:57:29Z,42.805,6.029,13.3034,4.60103,2470.717,2023-10-20T07:59:54Z
2023-10-20T06:00:32Z,42.805,6.029,13.3033,4.60101,2470.754,2023-10-20T08:02:57Z
2023-10-20T06:03:35Z,42.805,6.029,13.3034,4.60101,2470.717,2023-10-20T08:06:00Z
2023-10-20T06:06:38Z,42.805,6.029,13.3033,4.60099,2470.73,2023-10-20T08:09:03Z
2023-10-20T06:09:41Z,42.805,6.029,13.3034,4.60099,2470.74,2023-10-20T08:12:06Z
2023-10-20T06:12:44Z,42.805,6.029,13.3036,4.60101,2470.693,2023-10-20T08:15:09Z
2023-10-20T06:15:47Z,42.805,6.029,13.3035,4.60099,2470.74,2023-10-20T08:18:12Z
2023-10-20T06:18:50Z,42.805,6.029,13.3036,4.60100,2470.74,2023-10-20T08:21:15Z
2023-10-20T06:21:53Z,42.805,6.029,13.3032,4.60099,2470.73,2023-10-20T08:24:18Z
2023-10-20T06:24:56Z,42.805,6.029,13.3035,4.60101,2470.74,2023-10-20T08:27:21Z
2023-10-20T06:27:59Z,42.805,6.029,13.3037,4.60099,2470.754,2023-10-20T08:30:24Z
2023-10-20T06:31:02Z,42.805,6.029,13.3034,4.60101,2470.74,2023-10-20T08:33:27Z
2023-10-20T06:34:06Z,42.805,6.029,13.3034,4.60100,2470.777,2023-10-20T08:36:30Z
2023-10-20T06:37:09Z,42.805,6.029,13.3034,4.60102,2470.717,2023-10-20T08:39:34Z
2023-10-20T06:40:12Z,42.805,6.029,13.3036,4.60102,2470.787,2023-10-20T08:42:37Z
2023-10-20T06:43:15Z,42.805,6.029,13.3036,4.60102,2470.754,2023-10-20T08:45:40Z
2023-10-20T06:46:18Z,42.805,6.029,13.3034,4.60100,2470.777,2023-10-20T08:48:43Z
2023-10-20T06:49:21Z,42.805,6.029,13.3036,4.60102,2470.763,2023-10-20T08:51:46Z
2023-10-20T06:52:24Z,42.805,6.029,13.3034,4.60101,2470.763,2023-10-20T08:54:49Z
2023-10-20T06:55:27Z,42.805,6.029,13.3037,4.60101,2470.763,2023-10-20T08:57:52Z
2023-10-20T06:58:30Z,42.805,6.029,13.3035,4.60100,2470.763,2023-10-20T09:00:55Z
2023-10-20T07:01:33Z,42.805,6.029,13.3034,4.60101,2470.74,2023-10-20T09:03:58Z
2023-10-20T07:04:36Z,42.805,6.029,13.3031,4.60102,2470.763,2023-10-20T09:07:01Z
2023-10-20T07:07:39Z,42.805,6.029,13.3036,4.60101,2470.787,2023-10-20T09:10:04Z
2023-10-20T07:10:42Z,42.805,6.029,13.3034,4.60102,2470.787,2023-10-20T09:13:07Z
2023-10-20T07:13:46Z,42.805,6.029,13.3038,4.60100,2470.81,2023-10-20T09:16:11Z
2023-10-20T07:16:49Z,42.805,6.029,13.3033,4.60100,2470.777,2023-10-20T09:19:14Z
2023-10-20T07:19:52Z,42.805,6.029,13.3036,4.60101,2470.81,2023-10-20T09:22:17Z
2023-10-20T07:22:55Z,42.805,6.029,13.3043,4.60101,2470.787,2023-10-20T09:25:20Z
2023-10-20T07:25:58Z,42.805,6.029,13.3032,4.60104,2470.787,2023-10-20T09:28:23Z
2023-10-20T07:29:01Z,42.805,6.029,13.3035,4.60101,2470.8,2023-10-20T09:31:26Z
2023-10-20T07:32:04Z,42.805,6.029,13.3035,4.60104,2470.777,2023-10-20T09:34:29Z
2023-10-20T07:35:07Z,42.805,6.029,13.3035,4.60100,2470.787,2023-10-20T09:37:32Z
2023-10-20T07:38:10Z,42.805,6.029,13.3039,4.60102,2470.81,2023-10-20T09:40:35Z
2023-10-20T07:41:13Z,42.805,6.029,13.3034,4.60104,2470.787,2023-10-20T09:43:38Z
2023-10-20T07:44:16Z,42.805,6.029,13.3033,4.60104,2470.787,2023-10-20T09:46:41Z
2023-10-20T07:47:19Z,42.805,6.029,13.3034,4.60102,2470.787,2023-10-20T09:49:44Z
2023-10-20T07:50:23Z,42.805,6.029,13.3033,4.60101,2470.847,2023-10-20T09:52:48Z
2023-10-20T07:53:26Z,42.805,6.029,13.3036,4.60104,2470.787,2023-10-20T09:55:51Z
2023-10-20T07:56:29Z,42.805,6.029,13.3039,4.60103,2470.81,2023-10-20T09:58:54Z
2023-10-20T07:59:32Z,42.805,6.029,13.3036,4.60104,2470.81,2023-10-20T10:01:57Z
2023-10-20T08:02:35Z,42.805,6.029,13.3036,4.60104,2470.81,2023-10-20T10:05:00Z
2023-10-20T08:05:38Z,42.805,6.029,13.3033,4.60102,2470.833,2023-10-20T10:08:03Z
2023-10-20T08:08:41Z,42.805,6.029,13.3036,4.60102,2470.787,2023-10-20T10:11:06Z
2023-10-20T08:11:44Z,42.805,6.029,13.3038,4.60109,2470.847,2023-10-20T10:14:09Z
2023-10-20T08:14:47Z,42.805,6.029,13.3033,4.60102,2470.833,2023-10-20T10:17:12Z
2023-10-20T08:17:50Z,42.805,6.029,13.3034,4.60105,2470.81,2023-10-20T10:20:15Z
2023-10-20T08:20:53Z,42.805,6.029,13.3036,4.60104,2470.847,2023-10-20T10:23:18Z
2023-10-20T08:23:56Z,42.805,6.029,13.3034,4.60110,2470.857,2023-10-20T10:26:21Z
2023-10-20T08:27:00Z,42.805,6.029,13.3036,4.60102,2470.871,2023-10-20T10:29:24Z
2023-10-20T08:30:03Z,42.805,6.029,13.3036,4.60110,2470.824,2023-10-20T10:32:28Z
2023-10-20T08:33:06Z,42.805,6.029,13.3036,4.60101,2470.857,2023-10-20T10:35:31Z
2023-10-20T08:36:09Z,42.805,6.029,13.3034,4.60102,2470.847,2023-10-20T10:38:34Z
2023-10-20T08:39:12Z,42.805,6.029,13.3038,4.60101,2470.871,2023-10-20T10:41:37Z
2023-10-20T08:42:15Z,42.805,6.029,13.3036,4.60102,2470.81,2023-10-20T10:44:40Z
2023-10-20T08:45:18Z,42.805,6.029,13.3037,4.60102,2470.81,2023-10-20T10:47:43Z
2023-10-20T08:48:21Z,42.805,6.029,13.3032,4.60104,2470.847,2023-10-20T10:50:46Z
2023-10-20T08:51:24Z,42.805,6.029,13.3036,4.60102,2470.833,2023-10-20T10:53:49Z
2023-10-20T08:54:27Z,42.805,6.029,13.3037,4.60102,2470.857,2023-10-20T10:56:52Z
2023-10-20T08:57:30Z,42.805,6.029,13.3033,4.60101,2470.81,2023-10-20T10:59:55Z
2023-10-20T09:00:34Z,42.805,6.029,13.3039,4.60104,2470.82,2023-10-20T11:02:58Z
2023-10-20T09:03:37Z,42.805,6.029,13.3036,4.60104,2470.857,2023-10-20T11:06:02Z
2023-10-20T09:06:40Z,42.805,6.029,13.3036,4.60103,2470.857,2023-10-20T11:09:05Z
2023-10-20T09:09:43Z,42.805,6.029,13.3035,4.60102,2470.857,2023-10-20T11:12:08Z
2023-10-20T09:12:46Z,42.805,6.029,13.3036,4.60104,2470.871,2023-10-20T11:15:11Z
2023-10-20T09:15:49Z,42.805,6.029,13.3035,4.60104,2470.88,2023-10-20T11:18:14Z
2023-10-20T09:18:52Z,42.805,6.029,13.3037,4.60105,2470.871,2023-10-20T11:21:17Z
2023-10-20T09:21:55Z,42.805,6.029,13.3036,4.60102,2470.857,2023-10-20T11:24:20Z
2023-10-20T09:24:58Z,42.805,6.029,13.3034,4.60102,2470.904,2023-10-20T11:27:23Z
2023-10-20T09:28:01Z,42.805,6.029,13.3036,4.60102,2470.904,2023-10-20T11:30:26Z
2023-10-20T09:31:04Z,42.805,6.029,13.3036,4.60114,2470.88,2023-10-20T11:33:29Z
2023-10-20T09:34:07Z,42.805,6.029,13.3033,4.60103,2470.833,2023-10-20T11:36:32Z
2023-10-20T09:37:11Z,42.805,6.029,13.3031,4.60122,2470.88,2023-10-20T11:39:35Z
2023-10-20T09:40:14Z,42.805,6.029,13.3037,4.60103,2470.857,2023-10-20T11:42:39Z
2023-10-20T09:43:17Z,42.805,6.029,13.3037,4.60105,2470.904,2023-10-20T11:45:42Z
2023-10-20T09:46:20Z,42.805,6.029,13.3035,4.60104,2470.904,2023-10-20T11:48:45Z
2023-10-20T09:49:23Z,42.805,6.029,13.3031,4.60104,2470.894,2023-10-20T11:51:48Z
2023-10-20T09:52:26Z,42.805,6.029,13.3037,4.60128,2470.894,2023-10-20T11:54:51Z
2023-10-20T09:55:29Z,42.805,6.029,13.3034,4.60105,2470.88,2023-10-20T11:57:54Z
2023-10-20T09:58:32Z,42.805,6.029,13.3035,4.60114,2470.904,2023-10-20T12:00:57Z
2023-10-20T10:01:35Z,42.805,6.029,13.3041,4.60106,2470.857,2023-10-20T12:04:00Z
2023-10-20T10:04:38Z,42.805,6.029,13.3039,4.60105,2470.917,2023-10-20T12:07:03Z
2023-10-20T10:07:41Z,42.805,6.029,13.3031,4.60107,2470.894,2023-10-20T12:10:06Z
2023-10-20T10:10:44Z,42.805,6.029,13.3037,4.60107,2470.857,2023-10-20T12:13:09Z
2023-10-20T10:13:48Z,42.805,6.029,13.3038,4.60122,2470.88,2023-10-20T12:16:13Z
2023-10-20T10:16:51Z,42.805,6.029,13.3039,4.60115,2470.88,2023-10-20T12:19:16Z
2023-10-20T10:19:54Z,42.805,6.029,13.3041,4.60107,2470.857,2023-10-20T12:22:19Z
2023-10-20T10:22:57Z,42.805,6.029,13.3039,4.60115,2470.88,2023-10-20T12:25:22Z
2023-10-20T10:26:00Z,42.805,6.029,13.3046,4.60105,2470.904,2023-10-20T12:28:25Z
2023-10-20T10:29:03Z,42.805,6.029,13.3055,4.60108,2470.857,2023-10-20T12:31:28Z
2023-10-20T10:32:06Z,42.805,6.029,13.3037,4.60113,2470.88,2023-10-20T12:34:31Z
2023-10-20T10:35:09Z,42.805,6.029,13.3036,4.60109,2470.857,2023-10-20T12:37:34Z
2023-10-20T10:38:12Z,42.805,6.029,13.3035,4.60110,2470.88,2023-10-20T12:40:37Z
2023-10-20T10:41:15Z,42.805,6.029,13.3037,4.60111,2470.904,2023-10-20T12:43:40Z
2023-10-20T10:44:18Z,42.805,6.029,13.3036,4.60109,2470.88,2023-10-20T12:46:43Z
2023-10-20T10:47:21Z,42.805,6.029,13.3039,4.60110,2470.871,2023-10-20T12:49:46Z
2023-10-20T10:50:25Z,42.805,6.029,13.3039,4.60114,2470.894,2023-10-20T12:52:50Z
2023-10-20T10:53:28Z,42.805,6.029,13.3032,4.60119,2470.927,2023-10-20T12:55:53Z
2023-10-20T10:56:31Z,42.805,6.029,13.3038,4.60112,2470.894,2023-10-20T12:58:56Z
2023-10-20T10:59:34Z,42.805,6.029,13.3039,4.60110,2470.904,2023-10-20T13:01:59Z
2023-10-20T11:02:37Z,42.805,6.029,13.3035,4.60127,2470.904,2023-10-20T13:05:02Z
2023-10-20T11:05:40Z,42.805,6.029,13.3037,4.60135,2470.917,2023-10-20T13:08:05Z
2023-10-20T11:08:43Z,42.805,6.029,13.3037,4.60146,2470.904,2023-10-20T13:11:08Z
2023-10-20T11:11:46Z,42.805,6.029,13.3033,4.60143,2470.871,2023-10-20T13:14:11Z
2023-10-20T11:14:49Z,42.805,6.029,13.3035,4.60146,2470.917,2023-10-20T13:17:14Z
2023-10-20T11:17:52Z,42.805,6.029,13.3030,4.60143,2470.871,2023-10-20T13:20:17Z
2023-10-20T11:20:55Z,42.805,6.029,13.3036,4.60129,2470.894,2023-10-20T13:23:20Z
2023-10-20T11:23:58Z,42.805,6.029,13.3031,4.60134,2470.88,2023-10-20T13:26:23Z
2023-10-20T11:27:02Z,42.805,6.029,13.3036,4.60127,2470.894,2023-10-20T13:29:27Z
2023-10-20T11:30:05Z,42.805,6.029,13.3034,4.60127,2470.866,2023-10-20T13:32:30Z
2023-10-20T11:33:08Z,42.805,6.029,13.3031,4.60126,2470.927,2023-10-20T13:35:33Z
2023-10-20T11:36:11Z,42.805,6.029,13.3036,4.60125,2470.88,2023-10-20T13:38:36Z
2023-10-20T11:39:14Z,42.805,6.029,13.3035,4.60127,2470.88,2023-10-20T13:41:39Z
2023-10-20T11:42:17Z,42.805,6.029,13.3032,4.60122,2470.88,2023-10-20T13:44:42Z
2023-10-20T11:45:20Z,42.805,6.029,13.3034,4.60129,2470.904,2023-10-20T13:47:45Z
2023-10-20T11:48:23Z,42.805,6.029,13.3035,4.60117,2470.88,2023-10-20T13:50:48Z
2023-10-20T11:51:26Z,42.805,6.029,13.3033,4.60115,2470.894,2023-10-20T13:53:51Z
2023-10-20T11:54:29Z,42.805,6.029,13.3034,4.60125,2470.833,2023-10-20T13:56:54Z
2023-10-20T11:57:32Z,42.805,6.029,13.3036,4.60125,2470.894,2023-10-20T13:59:57Z
2023-10-20T12:00:36Z,42.805,6.029,13.3034,4.60119,2470.843,2023-10-20T14:03:00Z
2023-10-20T12:03:39Z,42.805,6.029,13.3032,4.60122,2470.871,2023-10-20T14:06:04Z
2023-10-20T12:06:42Z,42.805,6.029,13.3036,4.60115,2470.871,2023-10-20T14:09:07Z
2023-10-20T12:09:45Z,42.805,6.029,13.3034,4.60117,2470.917,2023-10-20T14:12:10Z
2023-10-20T12:12:48Z,42.805,6.029,13.3036,4.60113,2470.871,2023-10-20T14:15:13Z
2023-10-20T12:15:51Z,42.805,6.029,13.3033,4.60127,2470.857,2023-10-20T14:18:16Z
2023-10-20T12:18:54Z,42.805,6.029,13.3033,4.60132,2470.88,2023-10-20T14:21:19Z
2023-10-20T12:21:57Z,42.805,6.029,13.3036,4.60125,2470.857,2023-10-20T14:24:22Z
2023-10-20T12:25:00Z,42.805,6.029,13.3035,4.60131,2470.857,2023-10-20T14:27:25Z
2023-10-20T12:28:03Z,42.805,6.029,13.3034,4.60144,2470.88,2023-10-20T14:30:28Z
2023-10-20T12:31:07Z,42.805,6.029,13.3033,4.60122,2470.88,2023-10-20T14:33:32Z
2023-10-20T12:34:10Z,42.805,6.029,13.3034,4.60129,2470.843,2023-10-20T14:36:35Z
2023-10-20T12:37:13Z,42.805,6.029,13.3031,4.60122,2470.857,2023-10-20T14:39:38Z
2023-10-20T12:40:16Z,42.805,6.029,13.3032,4.60119,2470.857,2023-10-20T14:42:41Z
2023-10-20T12:43:19Z,42.805,6.029,13.3036,4.60116,2470.871,2023-10-20T14:45:44Z
2023-10-20T12:46:22Z,42.805,6.029,13.3035,4.60118,2470.81,2023-10-20T14:48:47Z
2023-10-20T12:49:25Z,42.805,6.029,13.3031,4.60109,2470.843,2023-10-20T14:51:50Z
2023-10-20T12:52:29Z,42.805,6.029,13.3033,4.60112,2470.88,2023-10-20T14:54:54Z
2023-10-20T12:55:32Z,42.805,6.029,13.3036,4.60114,2470.857,2023-10-20T14:57:57Z
2023-10-20T12:58:35Z,42.805,6.029,13.3033,4.60117,2470.857,2023-10-20T15:01:00Z
2023-10-20T13:01:38Z,42.805,6.029,13.3039,4.60114,2470.81,2023-10-20T15:04:03Z
2023-10-20T13:04:41Z,42.805,6.029,13.3031,4.60111,2470.833,2023-10-20T15:07:06Z
2023-10-20T13:07:44Z,42.805,6.029,13.3034,4.60109,2470.857,2023-10-20T15:10:09Z
2023-10-20T13:10:47Z,42.805,6.029,13.3034,4.60109,2470.871,2023-10-20T15:13:12Z
2023-10-20T13:13:50Z,42.805,6.029,13.3037,4.60110,2470.833,2023-10-20T15:16:15Z
2023-10-20T13:16:53Z,42.805,6.029,13.3032,4.60110,2470.82,2023-10-20T15:19:18Z
2023-10-20T13:19:56Z,42.805,6.029,13.3036,4.60108,2470.857,2023-10-20T15:22:21Z
2023-10-20T13:22:59Z,42.805,6.029,13.3034,4.60110,2470.833,2023-10-20T15:25:24Z
2023-10-20T13:26:03Z,42.805,6.029,13.3034,4.60112,2470.833,2023-10-20T15:28:27Z
2023-10-20T13:29:06Z,42.805,6.029,13.3036,4.60114,2470.847,2023-10-20T15:31:31Z
2023-10-20T13:32:09Z,42.805,6.029,13.3036,4.60114,2470.833,2023-10-20T15:34:34Z
2023-10-20T13:35:12Z,42.805,6.029,13.3036,4.60114,2470.833,2023-10-20T15:37:37Z
2023-10-20T13:38:15Z,42.805,6.029,13.3034,4.60112,2470.847,2023-10-20T15:40:40Z
2023-10-20T13:41:18Z,42.805,6.029,13.3035,4.60113,2470.81,2023-10-20T15:43:43Z
2023-10-20T13:44:21Z,42.805,6.029,13.3034,4.60112,2470.847,2023-10-20T15:46:46Z
2023-10-20T13:47:24Z,42.805,6.029,13.3038,4.60111,2470.847,2023-10-20T15:49:49Z
2023-10-20T13:50:27Z,42.805,6.029,13.3035,4.60110,2470.833,2023-10-20T15:52:52Z
2023-10-20T13:53:30Z,42.805,6.029,13.3037,4.60108,2470.871,2023-10-20T15:55:55Z
2023-10-20T13:56:33Z,42.805,6.029,13.3039,4.60109,2470.847,2023-10-20T15:58:58Z
2023-10-20T13:59:36Z,42.805,6.029,13.3033,4.60110,2470.81,2023-10-20T16:02:01Z
2023-10-20T14:02:40Z,42.805,6.029,13.3033,4.60108,2470.833,2023-10-20T16:05:04Z
2023-10-20T14:05:43Z,42.805,6.029,13.3034,4.60106,2470.81,2023-10-20T16:08:08Z
2023-10-20T14:08:46Z,42.805,6.029,13.3033,4.60110,2470.833,2023-10-20T16:11:11Z
2023-10-20T14:11:49Z,42.805,6.029,13.3036,4.60107,2470.81,2023-10-20T16:14:14Z
2023-10-20T14:14:52Z,42.805,6.029,13.3039,4.60110,2470.857,2023-10-20T16:17:17Z
2023-10-20T14:17:55Z,42.805,6.029,13.3037,4.60113,2470.787,2023-10-20T16:20:20Z
2023-10-20T14:20:58Z,42.805,6.029,13.3036,4.60108,2470.81,2023-10-20T16:23:23Z
2023-10-20T14:24:01Z,42.805,6.029,13.3034,4.60110,2470.833,2023-10-20T16:26:26Z
2023-10-20T14:27:04Z,42.805,6.029,13.3032,4.60108,2470.824,2023-10-20T16:29:29Z
2023-10-20T14:30:11Z,42.805,6.029,13.3037,4.60110,2470.833,2023-10-20T16:32:36Z
2023-10-20T14:33:14Z,42.805,6.029,13.3031,4.60108,2470.824,2023-10-20T16:35:39Z
2023-10-20T14:36:17Z,42.805,6.029,13.3033,4.60112,2470.833,2023-10-20T16:38:42Z
2023-10-20T14:39:20Z,42.805,6.029,13.3036,4.60107,2470.81,2023-10-20T16:41:45Z
2023-10-20T14:42:23Z,42.805,6.029,13.3039,4.60110,2470.8,2023-10-20T16:44:48Z
2023-10-20T14:45:26Z,42.805,6.029,13.3033,4.60111,2470.81,2023-10-20T16:47:51Z
2023-10-20T14:48:29Z,42.805,6.029,13.3034,4.60107,2470.81,2023-10-20T16:50:54Z
2023-10-20T14:51:33Z,42.805,6.029,13.3036,4.60109,2470.847,2023-10-20T16:53:58Z
2023-10-20T14:54:36Z,42.805,6.029,13.3032,4.60107,2470.8,2023-10-20T16:57:01Z
2023-10-20T14:57:39Z,42.805,6.029,13.3033,4.60111,2470.787,2023-10-20T17:00:04Z
2023-10-20T15:00:42Z,42.805,6.029,13.3036,4.60111,2470.787,2023-10-20T17:03:07Z